Simultaneous Nadir Overpasses (SNOs) Predictions

Prediction of SNOs between NOAA-19 and NPP Satellite Orbit:

Table of predicted SNOs for the next 14.0 days since TLE Epoch: 4/22/2023
Index Date (NOAA-19) Time (NOAA-19) Lat,Lon (NOAA-19) SZA (NOAA-19 ) Date (NPP) Time (NPP) Lat,Lon (NPP) SZA (NPP ) Distance(km) Time Diff (sec)
1 04/27/2023 22:52:02 -75.34, 1.96 118.22 04/27/2023 22:53:15 -75.40, 2.79 118.24 24.26 73
2 04/27/2023 23:42:52 75.50, 169.74 61.89 04/27/2023 23:44:03 75.51, 169.76 61.88 1.38 71
3 04/28/2023 00:33:57 -75.54, -22.91 118.10 04/28/2023 00:34:47 -75.50, -22.90 118.15 3.74 50
4 04/28/2023 01:24:51 75.51, 144.28 61.87 04/28/2023 01:25:33 75.52, 144.35 61.87 2.60 42
5 04/28/2023 02:15:56 -75.54, -48.38 118.12 04/28/2023 02:16:18 -75.56, -48.44 118.11 2.39 22
6 04/28/2023 03:06:49 75.56, 118.96 61.89 04/28/2023 03:07:03 75.53, 118.95 61.86 3.64 14
7 04/28/2023 03:57:55 -75.55, -73.84 118.13 04/28/2023 03:57:48 -75.57, -73.85 118.12 1.54 7
8 04/28/2023 04:48:48 75.57, 93.50 61.87 04/28/2023 04:48:34 75.59, 93.40 61.90 3.02 14
9 04/28/2023 05:39:54 -75.56, -99.31 118.15 04/28/2023 05:39:18 -75.58, -99.25 118.13 2.31 36
10 04/28/2023 06:30:47 75.58, 68.03 61.86 04/28/2023 06:30:04 75.59, 68.00 61.89 1.88 43
11 04/28/2023 07:21:52 -75.61,-124.62 118.13 04/28/2023 07:20:48 -75.58,-124.65 118.14 3.52 64
12 04/28/2023 08:12:46 75.59, 42.56 61.84 04/28/2023 08:11:34 75.60, 42.60 61.87 2.06 72



Historial Predications of SNOs between NOAA-19 and NPP
